Location: Marysville Observatory
(48.1092°N, 122.1645°W)
Time: 08:47:53
(UTC-08:00)

Daily predictions for brighter satellites

Satellite Brightness Start Highest point End
(mag) Time Altitude Azimuth Time Altitude Azimuth Time Altitude Azimuth
Cosmos 1378 Rocket 3.7 16:45:39 10° S 16:50:06 87° WNW 16:54:35 10° N
NOSS 3-2 (A) 4.1 16:43:34 10° NW 16:50:39 52° NE 16:58:27 10° ESE
CSL-04 Debris 4.4 16:48:13 10° SE 16:53:20 47° ENE 16:58:30 10° N
NOSS 3-2 (C) 4.2 16:51:17 10° NW 16:58:16 47° NE 17:05:57 10° ESE
ALOS 3.7 16:55:39 10° E 16:58:28 16° ENE 17:01:19 10° NNE
Meteor 1-18 Rocket 4.2 16:53:53 10° S 16:59:27 78° E 17:05:10 10° NNE
PKM 4.3 16:53:54 10° SW 17:01:26 77° SSE 17:04:31 10° ENE
Cosmos 158 Rocket 4.1 16:59:07 10° NNW 17:04:07 50° ENE 17:08:58 10° SE
CZ-4 R/B 2.0 17:00:44 10° SE 17:04:14 33° ENE 17:07:49 10° N
ATLAS 3B R/B 2.6 16:58:19 10° NW 17:05:06 81° NE 17:11:38 10° SE
MSX 4.2 17:01:02 10° S 17:06:48 73° WSW 17:12:36 10° NNW
IRAS Rocket 4.2 17:02:25 10° SSE 17:07:51 69° ENE 17:13:19 10° NNW
ATLAS 2AS CENTAUR R/B 3.2 17:00:25 10° SSW 17:08:08 66° ESE 17:16:11 10° NE
Cosmos 1743 2.7 17:04:47 10° N 17:08:38 62° ENE 17:12:29 10° SSE
CSL-04 Rocket 3.7 17:04:35 10° SSE 17:10:00 70° ENE 17:15:30 10° N
NOSS 2-3 (E) 4.2 17:06:20 10° SW 17:11:05 72° NW 17:16:50 10° NE
Cosmos 2369 Rocket 4.2 17:12:40 10° W 17:16:39 19° NW 17:20:38 10° N
Abrixas rocket 2.2 17:13:57 10° WSW 17:17:12 76° SSE 17:19:50 15° E
Cosmos 1634 Rocket 4.4 17:13:32 10° SSW 17:19:43 68° WNW 17:26:01 10° N
Cosmos 1697 Rocket 4.0 17:15:48 10° SSE 17:19:50 20° E 17:22:52 14° ENE
Cosmos 2150 Rocket 4.2 17:15:48 10° SSW 17:21:16 87° WNW 17:26:45 10° NNE
USA 215 3.6 17:15:25 10° SE 17:21:57 70° SW 17:28:28 10° WNW
ISS -1.5 17:20:53 10° W 17:23:42 27° SW 17:26:31 10° SSE
Meteor 1-19 Rocket 4.3 17:19:13 10° S 17:24:47 59° E 17:30:31 10° NNE
BREEZE-M DEB (TANK) 2.2 17:23:19 10° W 17:25:32 78° N 17:28:46 15° ENE
Cosmos 2082 3.6 17:22:33 10° NNW 17:28:12 72° ENE 17:33:48 10° SE
USA 161 3.0 17:28:58 10° N 17:31:40 36° WNW 17:34:27 10° SW
ERS-2 3.0 17:30:27 10° SE 17:33:36 27° ENE 17:36:45 10° N
Cosmos 1455 Rocket 3.1 17:30:55 10° N 17:35:23 85° W 17:39:47 10° S
Cosmos 2266 Rocket 3.9 17:31:29 10° N 17:37:32 62° ENE 17:43:38 10° SSE
Cosmos 1655 Rocket 4.4 17:32:01 10° NNW 17:38:23 69° W 17:44:43 10° S
Cosmos 1271 Rocket 3.3 17:35:20 10° NNW 17:39:05 58° W 17:42:51 10° S
CZ-2C R/B 4.4 17:34:44 10° SSW 17:39:25 34° W 17:44:05 10° NNW
Cosmos 1544 Rocket 3.8 17:35:19 10° NNW 17:39:41 72° W 17:43:59 10° S
Cosmos 2227 Rocket 2.4 17:34:13 10° NNW 17:39:54 78° WSW 17:45:32 10° SSE
SPOT 3 Rocket 3.9 17:38:06 10° SE 17:42:54 40° ENE 17:47:42 10° N
MINOTAUR IV R/B 4.5 17:38:52 10° NNW 17:43:23 75° ENE 17:47:51 10° SSE
CENTAUR R/B 3.4 17:37:41 10° NW 17:44:55 45° NE 17:51:51 14° ESE
USA 116 3.4 17:44:10 23° NE 17:45:49 45° E 17:48:48 10° S
CORIOLIS 4.3 17:42:05 10° SSE 17:47:31 81° WSW 17:52:57 10° NNW
YAOGAN 1 2.5 17:44:30 10° SSE 17:48:49 71° ENE 17:53:09 10° N
CZ-4 R/B 4.3 17:45:52 10° SSE 17:49:58 67° ENE 17:54:06 10° N
Ariane Rocket 3.5 17:45:56 10° S 17:50:56 63° WSW 17:55:59 10° NNW
Cosmos 2251 Rocket 4.3 17:47:33 10° N 17:52:10 29° NE 17:54:11 23° E
Meteor 2-9 Rocket 4.1 17:47:10 10° NNW 17:52:43 87° W 17:58:06 10° S
STPSAT 2 (USA 217) 4.5 17:50:28 10° NNW 17:55:01 71° ENE 17:59:33 10° SSE
Cosmos 494 Rocket 4.3 17:50:48 10° NNW 17:55:48 42° ENE 18:00:47 10° SE
Cosmos 1666 4.1 17:54:09 10° NNW 17:57:41 39° W 18:01:10 10° SSW
MOS 1 4.2 17:52:28 10° SSE 17:58:05 66° ENE 18:03:44 10° N
Cosmos 1269 Rocket 4.0 17:53:16 10° NNW 17:58:37 87° ENE 18:03:55 10° SSE
Cosmos 1943 Rocket 4.5 17:56:23 10° WNW 17:59:46 16° NW 18:03:10 10° N
Cosmos 1484 Rocket 4.3 17:56:05 10° S 17:59:53 41° W 18:03:43 10° NNW
Cosmos 1980 Rocket 3.2 17:56:11 10° SSE 18:00:45 25° ESE 18:01:24 25° E
COSMO-SKYMED 1 2.8 17:59:01 22° NE 18:01:31 47° E 18:05:43 10° S
Meteor 1-23 Rocket 4.3 17:57:08 10° S 18:02:45 58° E 18:08:19 10° NNE
Cosmos 1125 Rocket 3.4 17:58:34 10° SSW 18:03:51 74° ESE 18:07:46 18° NNE
MONITOR-E 4.0 18:00:58 10° SSE 18:03:58 59° ENE 18:07:00 10° N
CZ-2C R/B 3.7 18:00:10 10° NNE 18:04:53 83° ESE 18:09:38 10° SSW
Cosmos 2297 Rocket 2.9 18:00:52 10° NW 18:06:26 58° WSW 18:11:57 10° S
Cosmos 1048 Rocket 4.5 18:03:27 10° NNW 18:08:47 66° WSW 18:14:06 10° S
SJ 16-02 1.2 18:05:08 10° SSW 18:09:31 82° ESE 18:12:04 25° NNE
MTI 3.6 18:14:00 66° ENE 18:14:12 68° ESE 18:17:26 10° S
Cosmos 1656 3.5 18:09:13 10° SSW 18:14:46 76° ESE 18:18:01 25° NNE
Gblst 52 Del rocket 4.3 18:10:10 10° WNW 18:15:45 76° SSW 18:20:02 20° SE
Cosmos 372 Rocket 3.9 18:14:33 10° SSW 18:19:47 87° WNW 18:23:10 22° NNE
Cosmos 2227 4.3 18:19:37 10° NNW 18:25:15 51° NE 18:27:12 36° ESE
COSMOS 2455 4.1 18:25:17 10° NNW 18:29:31 22° NNE 18:29:31 22° NNE
Okean 1-7 Rocket 3.8 18:28:08 10° S 18:31:47 49° SE 18:31:47 49° SE
Cosmos 1025 Rocket 2.8 18:29:09 10° S 18:33:26 73° E 18:33:53 66° NE
Meteor 2-4 Rocket 4.2 18:28:37 10° SSW 18:33:56 56° WNW 18:39:13 10° N
Meteor 2-11 Rocket 4.3 18:28:07 10° S 18:34:13 73° E 18:40:08 11° NNE
ALOS 2.4 18:30:41 10° S 18:35:20 76° WSW 18:40:03 10° NNW
SL-24 R/B - RUBIN 2 4.5 18:30:22 10° SSW 18:36:13 47° ESE 18:36:48 46° ESE
Cosmos 1553 Rocket 4.3 18:30:40 10° SSE 18:36:41 45° E 18:37:23 43° ENE
NOAA 12 4.1 18:31:55 10° SSE 18:37:11 80° WSW 18:42:28 10° NNW
CZ-4 R/B 3.8 18:36:11 10° SSW 18:39:21 23° W 18:42:35 10° NW
Cosmos 2263 Rocket 3.3 18:37:49 10° NNW 18:41:08 27° NNE 18:41:08 27° NNE
EO 1 Del DPAF 3.3 18:44:06 75° W 18:44:06 75° W 18:47:51 10° SSW
Cosmos 2369 4.1 18:39:41 10° SW 18:45:18 60° WNW 18:48:26 27° NNE
Cosmos 2278 4.1 18:40:11 10° SW 18:45:49 62° WNW 18:48:51 28° NNE
Cosmos 1745 Rocket 4.0 18:39:46 10° N 18:45:49 52° ENE 18:46:06 51° E
FENGYUN 3A 4.0 18:41:54 10° S 18:47:14 66° WSW 18:52:36 10° NNW
Cosmos 2084 4.3 18:43:14 10° SSW 18:45:58 36° S 18:45:58 36° S
Cosmos 2360 4.3 18:43:52 10° S 18:49:07 53° ESE 18:49:07 53° ESE
NOSS 3-2 (C) 4.5 18:42:15 10° NW 18:49:35 60° WSW 18:57:36 10° SSE
SKYMED 2 4.1 18:47:38 29° N 18:49:38 57° WNW 18:53:52 10° SSW
Cosmos 1515 4.1 18:46:15 10° SSW 18:49:58 59° W 18:49:58 59° W
Abrixas rocket 4.1 18:50:32 10° W 18:52:19 30° W 18:52:19 30° W
Cosmos 1241 Rocket 4.4 18:51:52 10° SW 18:58:14 90° NW 18:59:48 54° NE
ATLAS 2AS CENTAUR R/B 3.8 18:52:00 10° WSW 18:59:38 46° NW 19:04:01 26° NNE
Okean 2 4.0 18:56:35 10° SSW 19:00:27 56° W 19:00:27 56° W
DNEPR-1 R/B 4.4 18:57:27 10° NW 19:02:26 64° SW 19:05:17 30° SSE
Cosmos 1697 Rocket 2.8 18:57:35 10° SW 19:03:13 71° WNW 19:04:38 50° N
ERS-2 4.4 19:04:11 10° SSW 19:07:15 25° W 19:10:20 10° NW
NOSS 3-4 (A) 3.5 19:13:57 10° SW 19:20:11 79° NW 19:20:45 73° N
NOSS 3-4 (C) 3.4 19:14:02 10° SW 19:20:17 79° NW 19:20:48 74° N
Gbstr 26 Del rocket 4.1 19:15:33 10° WSW 19:23:28 88° SSE 19:23:53 81° E
Cosmos 2251 Rocket 4.3 19:29:37 10° NNW 19:34:41 48° WSW 19:34:47 48° WSW
CENTAUR R/B 3.3 19:28:24 10° NW 19:36:12 69° SW 19:39:08 43° SSE
Cosmos 1980 Rocket 2.9 19:38:44 10° SW 19:43:14 50° WSW 19:43:14 50° WSW
SJ 16-02 4.0 19:46:14 10° W 19:48:44 15° NW 19:49:07 15° NW
